This demonstration page uses our WeatherBlox Daily Observations layout. Learn more.

Left ArrowRight Arrow

Hourly Observations for April 19, 2015

Temp ( °F °C ) Dew Point ( °F °C ) Humidity (%) Winds ( mph kmh ) Pressure ( in mb ) Visibility ( mi km ) Precip ( " mm )
12:53 am 00:53 Clear 65 18.3 48 8.9 54 54 ENE 9 15 29.95 1014 10 16.0934 0 0
1:53 am 01:53 Clear 63 17.2 48 8.9 58 58 E 8 13 29.95 1014 10 16.0934 0 0
2:53 am 02:53 Clear 61 16.1 49 9.4 65 65 E 7 11 29.92 1013 10 16.0934 0 0
3:53 am 03:53 Clear 60 15.6 49 9.4 67 67 ENE 7 11 29.91 1013 10 16.0934 0 0
4:53 am 04:53 Clear 59 15 48 8.9 67 67 E 7 11 29.88 1012 10 16.0934 0 0
5:53 am 05:53 Clear 60 15.6 47 8.3 62 62 ENE 5 7 29.87 1012 10 16.0934 0 0
6:53 am 06:53 Clear 59 15 47 8.3 64 64 ENE 6 9 29.85 1011 10 16.0934 0 0
7:53 am 07:53 Cloudy 59 15 47 8.3 64 64 ENE 6 9 29.85 1011 10 16.0934 0 0
8:53 am 08:53 Cloudy 60 15.6 47 8.3 62 62 E 7 11 29.83 1010 10 16.0934 0 0
9:53 am 09:53 Mostly Cloudy 62 16.7 49 9.4 62 62 E 6 9 29.8 1009 10 16.0934 0 0
10:53 am 10:53 Cloudy with Light Rain 62 16.7 53 11.7 73 73 E 7 11 29.79 1009 10 16.0934 0 0.0254
11:53 am 11:53 Cloudy with Light Rain 62 16.7 56 13.3 80 80 ESE 6 9 29.77 1008 6 9.65604 0.02 0.508
12:53 pm 12:53 Cloudy with Light Rain 64 17.8 60 15.6 87 87 ESE 9 15 29.71 1006 10 16.0934 0.04 1.016
1:53 pm 13:53 Cloudy with Rain 64 17.8 62 16.7 93 93 ESE 10 17 29.67 1005 3 4.82802 0.07 1.778
2:03 pm 14:03 Cloudy with Light Rain 65 18.3 62 16.7 90 90 ESE 9 15 29.68 1005 6 9.65604 0 0.0254
2:14 pm 14:14 Cloudy with Light Rain 65 18.3 62 16.7 90 90 ESE 10 17 29.68 1005 8 12.87472 0.01 0.254
2:53 pm 14:53 Cloudy with Light Rain 66 18.9 62 16.7 87 87 ESE 8 13 29.62 1003 4 6.43736 0.01 0.254
3:06 pm 15:06 Cloudy with Light Rain 65 18.3 62 16.7 90 90 ESE 10 17 29.62 1003 1.75 2.816345 0.02 0.508
3:16 pm 15:16 Cloudy with Light Rain 65 18.3 62 16.7 90 90 ESE 13 20 29.62 1003 3 4.82802 0.04 1.016
3:32 pm 15:32 Cloudy with Light Rain 64 17.8 62 16.7 93 93 ESE 10 17 29.59 1002 5 8.0467 0.04 1.016
3:53 pm 15:53 Cloudy with Light Rain 65 18.3 62 16.7 90 90 SE 8 13 29.57 1001 10 16.0934 0.04 1.016
4:33 pm 16:33 Cloudy with Rain 64 17.8 62 16.7 93 93 ESE 10 17 29.53 1000 2.5 4.02335 0.02 0.508
4:37 pm 16:37 Cloudy with Heavy Rain 64 17.8 62 16.7 93 93 VRB 7 11 29.53 1000 1.75 2.816345 0.05 1.27
4:43 pm 16:43 Cloudy with Rain 64 17.8 62 16.7 93 93 ESE 7 11 29.53 1000 2 3.21868 0.07 1.778
4:53 pm 16:53 Cloudy with Rain 64 17.8 62 16.7 93 93 ESE 8 13 29.52 1000 3 4.82802 0.1 2.54
5:00 pm 17:00 Cloudy with Heavy Rain 64 17.8 62 16.7 93 93 ESE 7 11 29.53 1000 1.75 2.816345 0.03 0.762
5:08 pm 17:08 Cloudy with Rain 64 17.8 62 16.7 93 93 ESE 8 13 29.5 999 1.5 2.41401 0.05 1.27
5:31 pm 17:31 Cloudy with Rain 64 17.8 62 16.7 93 93 SE 9 15 29.5 999 1.75 2.816345 0.12 3.048
5:39 pm 17:39 Cloudy with Light Rain 64 17.8 62 16.7 93 93 SE 8 13 29.5 999 2 3.21868 0.13 3.302
5:49 pm 17:49 Cloudy with Light Rain 64 18 63 17 94 94 SSE 7 11 29.5 999 7 11.26538 0.13 3.302
5:53 pm 17:53 Cloudy 65 18.3 63 17.2 93 93 SSE 7 11 29.48 998 10 16.0934 0.13 3.302
6:05 pm 18:05 Cloudy with Light Rain 65 18.3 63 17.2 93 93 SSE 9 15 29.47 998 10 16.0934 0 0.0254
6:24 pm 18:24 Cloudy with Rain 65 18.3 63 17.2 93 93 SSE 9 15 29.47 998 1.75 2.816345 0.05 1.27
6:31 pm 18:31 Cloudy with Heavy Rain 65 18.3 63 17.2 93 93 SSE 7 11 29.47 998 1.25 2.011675 0.07 1.778
6:35 pm 18:35 Cloudy with Rain 65 18.3 63 17.2 93 93 SSE 10 17 29.47 998 2 3.21868 0.08 2.032
6:53 pm 18:53 Cloudy with Light Rain 66 18.9 63 17.2 90 90 VRB 5 7 29.47 998 6 9.65604 0.12 3.048
7:10 pm 19:10 Cloudy 66 18.9 64 17.8 93 93 VRB 5 7 29.47 998 10 16.0934 0.01 0.254
7:18 pm 19:18 Cloudy 67 19.4 63 17.2 87 87 VRB 6 9 29.47 998 10 16.0934 0.01 0.254
7:53 pm 19:53 Cloudy with Light Rain 66 18.9 63 17.2 90 90 SSE 8 13 29.46 998 9 14.48406 0.01 0.254
8:11 pm 20:11 Cloudy with Light Rain 65 18.3 63 17.2 93 93 SE 7 11 29.47 998 10 16.0934 0 0.0254
8:20 pm 20:20 Cloudy with Light Rain 65 18.3 63 17.2 93 93 VRB 7 11 29.47 998 6 9.65604 0.01 0.254
8:53 pm 20:53 Cloudy with Light Rain 65 18.3 63 17.2 93 93 VRB 5 7 29.45 997 10 16.0934 0.04 1.016
9:24 pm 21:24 Cloudy with Light Rain 65 18.3 64 17.8 97 97 S 9 15 29.44 997 2.5 4.02335 0.08 2.032
9:28 pm 21:28 Cloudy with Heavy Rain 64 17.8 63 17.2 96 96 S 8 13 29.44 997 1.5 2.41401 0.18 4.572
9:35 pm 21:35 Cloudy with Light Rain 65 18.3 63 17.2 93 93 SSE 3 6 29.44 997 2 3.21868 0.19 4.826
9:43 pm 21:43 Cloudy with Rain 65 18.3 63 17.2 93 93 S 8 13 29.44 997 5 8.0467 0.21 5.334
9:53 pm 21:53 Cloudy with Light Rain 65 18.3 63 17.2 93 93 VRB 7 11 29.43 997 4 6.43736 0.23 5.842
10:42 pm 22:42 Mostly Cloudy 65 18.3 63 17.2 93 93 SSW 8 13 29.44 997 10 16.0934 0 0.0254
10:53 pm 22:53 Mostly Cloudy 65 18.3 62 16.7 90 90 SSW 8 13 29.42 996 10 16.0934 0 0.0254
11:53 pm 23:53 Cloudy with Light Rain 65 18.3 62 16.7 90 90 S 8 13 29.41 996 10 16.0934 0 0.0254

Powered by AerisWeather